User: anonymous   Login
Location: Mentone
(34.5413°N, 85.5351°W)
Time: 04:59:32
(UTC-05:00)
Language:

Transit 2A Rocket - Orbit

View from above orbital plane
View from above orbital plane
View from above satellite
View from above satellite

Ground track
Ground track

The orbit data is extracted from the following two-line orbital elements,

1 00047U 60007C   15180.45053159  .00000167  00000-0  62421-4 0  9994
2 00047 066.6666 326.8549 0230652 192.7283 166.7939 14.41647100873452
Epoch (UTC): 29 June 2015 10:48:45
Eccentricity: 0.0230652
inclination: 66.6666°
perigee height: 588 km
apogee height: 917 km
right ascension of ascending node: 326.8549°
argument of perigee: 192.7283°
revolutions per day: 14.41647100
mean anomaly at epoch: 166.7939°
orbit number at epoch: 87345

The dashed part of the orbit path shows where the satellite is in the earth's shadow,  

DLR